2024-05-01 22:25:20.000,4.70,1.63,1.56,49.99,1132.00,1080.00,1043.53,110.00
2024-05-01 22:40:16.000,4.69,1.46,1.55,46.99,1007.00,1073.00,1041.36,108.00
2024-05-01 22:55:15.000,4.67,1.33,1.54,51.89,913.00,1056.00,1037.04,109.00
2024-05-01 23:10:15.000,4.73,1.20,1.58,51.98,841.00,1105.00,1050.01,59.00
2024-05-01 23:25:16.000,4.74,1.30,1.59,54.97,910.00,1112.00,1052.18,53.00
2024-05-01 23:40:20.000,4.74,1.20,1.59,51.97,843.00,1112.00,1052.18,54.00
2024-05-01 23:55:16.000,4.73,1.26,1.58,51.97,882.00,1102.00,1050.01,87.00
2024-05-02 00:10:15.000,4.73,1.23,1.58,51.97,857.00,1102.00,1050.01,74.00
2024-05-02 00:25:21.000,4.68,1.38,1.54,56.97,950.00,1063.00,1039.20,80.00
2024-05-02 00:40:14.000,4.67,1.54,1.53,50.98,1060.00,1053.00,1037.04,106.00
2024-05-02 00:55:14.000,4.68,1.67,1.54,46.98,1153.00,1061.00,1039.20,114.00
2024-05-02 01:10:20.000,4.66,1.88,1.53,44.98,1291.00,1046.00,1034.88,107.00
2024-05-02 01:25:21.000,4.62,1.52,1.50,46.99,1030.00,1015.00,1026.23,112.00
2024-05-02 01:40:17.000,4.66,1.64,1.53,58.99,1127.00,1046.00,1034.88,108.00
2024-05-02 01:55:14.000,4.65,1.36,1.52,54.99,929.00,1039.00,1032.71,112.00
2024-05-02 02:10:19.000,4.63,1.63,1.50,55.89,1107.00,1022.00,1028.39,113.00
2024-05-02 02:25:19.000,4.62,1.32,1.50,54.89,897.00,1015.00,1026.23,108.00
2024-05-02 02:40:19.000,4.60,1.53,1.48,49.99,1033.00,998.00,1021.90,110.00
2024-05-02 02:55:14.000,4.63,1.48,1.50,45.99,1008.00,1022.00,1028.39,144.00
2024-05-02 03:10:13.000,4.62,1.42,1.50,45.98,966.00,1015.00,1026.23,123.00
2024-05-02 03:25:19.000,4.62,1.16,1.49,52.98,785.00,1012.00,1026.23,80.00
2024-05-02 03:40:16.000,4.64,1.29,1.51,51.97,881.00,1029.00,1030.55,79.00
2024-05-02 03:55:20.000,4.65,1.36,1.52,47.99,933.00,1036.00,1032.71,64.00
2024-05-02 04:10:14.000,4.64,1.10,1.51,51.94,747.00,1029.00,1030.55,56.00
2024-05-02 04:25:15.000,4.64,1.15,1.51,46.98,787.00,1027.00,1030.55,78.00
2024-05-02 04:40:19.000,4.63,1.02,1.50,49.95,694.00,1020.00,1028.39,128.00
2024-05-02 04:55:20.000,4.63,1.11,1.50,48.97,754.00,1020.00,1028.39,133.00
2024-05-02 05:10:20.000,4.62,1.09,1.49,49.96,739.00,1010.00,1026.23,147.00
2024-05-02 05:25:15.000,4.61,1.00,1.48,47.96,679.00,1003.00,1024.06,106.00
2024-05-02 05:40:20.000,4.61,1.10,1.48,45.98,743.00,1001.00,1024.06,168.00
2024-05-02 05:55:16.000,4.60,1.15,1.47,47.95,779.00,994.00,1021.90,98.00
2024-05-02 06:10:14.000,4.60,1.22,1.47,48.98,825.00,994.00,1021.90,106.00
2024-05-02 06:25:19.000,4.59,1.11,1.46,51.95,748.00,984.00,1019.74,106.00
2024-05-02 06:40:16.000,4.59,1.10,1.46,53.97,739.00,984.00,1019.74,78.00
2024-05-02 06:55:19.000,4.57,1.06,1.45,56.95,709.00,968.00,1015.41,69.00
2024-05-02 07:10:20.000,4.57,1.10,1.45,54.96,733.00,968.00,1015.41,65.00
2024-05-02 07:25:19.000,4.56,1.18,1.44,54.95,790.00,959.00,1013.25,69.00
2024-05-02 07:40:19.000,4.56,1.23,1.44,53.97,819.00,959.00,1013.25,80.00
2024-05-02 07:55:20.000,4.55,1.25,1.43,48.99,829.00,952.00,1011.09,100.00
2024-05-02 08:10:19.000,4.54,1.17,1.42,48.98,775.00,943.00,1008.92,101.00
2024-05-02 08:25:16.000,4.54,1.07,1.42,51.97,712.00,943.00,1008.92,80.00
2024-05-02 08:40:17.000,4.54,1.19,1.42,51.97,790.00,943.00,1008.92,74.00
2024-05-02 08:55:14.000,4.53,1.14,1.41,50.95,753.00,933.00,1006.76,67.00
2024-05-02 09:10:15.000,4.52,1.12,1.40,53.98,738.00,927.00,1004.60,66.00
2024-05-02 09:25:16.000,4.52,1.20,1.40,51.98,790.00,927.00,1004.60,85.00
2024-05-02 09:40:16.000,4.51,1.38,1.39,46.99,907.00,917.00,1002.44,75.00
2024-05-02 09:55:18.000,4.50,1.24,1.39,51.97,812.00,911.00,1000.27,52.00
2024-05-02 10:10:15.000,4.50,1.21,1.39,49.98,792.00,911.00,1000.27,58.00
2024-05-02 10:25:19.000,4.49,1.34,1.38,47.97,876.00,902.00,998.11,102.00
2024-05-02 10:40:18.000,4.49,1.56,1.38,45.99,1018.00,902.00,998.11,51.00
2024-05-02 10:55:16.000,4.48,0.00,1.37,-1.99,0.00,895.00,995.95,259.00
2024-05-02 11:10:14.000,4.47,2.52,1.36,44.99,1642.00,888.00,993.79,43.00
2024-05-02 11:25:20.000,4.47,1.51,1.36,42.96,980.00,888.00,993.79,61.00
2024-05-02 11:40:16.000,4.46,1.41,1.36,44.97,918.00,881.00,991.62,78.00
2024-05-02 11:55:20.000,4.45,1.36,1.35,50.97,881.00,875.00,989.46,65.00
2024-05-02 12:10:19.000,4.45,1.17,1.35,44.97,756.00,875.00,989.46,74.00
2024-05-02 12:25:21.000,4.45,1.08,1.35,48.97,696.00,875.00,989.46,74.00
2024-05-02 12:40:15.000,4.43,1.36,1.34,44.99,878.00,859.00,985.14,62.00
2024-05-02 12:55:16.000,4.43,1.25,1.34,49.97,806.00,859.00,985.14,90.00
2024-05-02 13:10:14.000,4.43,1.25,1.34,48.97,802.00,859.00,985.14,84.00
2024-05-02 13:25:16.000,4.42,1.23,1.33,50.99,792.00,853.00,982.97,78.00
2024-05-02 13:40:16.000,4.42,1.23,1.33,52.97,789.00,850.00,982.97,67.00
2024-05-02 13:55:15.000,4.41,1.15,1.32,51.97,735.00,844.00,980.81,89.00
2024-05-02 14:10:15.000,4.40,1.16,1.31,47.97,743.00,837.00,978.65,82.00
2024-05-02 14:25:17.000,4.40,1.10,1.31,51.94,699.00,837.00,978.65,55.00
2024-05-02 14:40:20.000,4.39,1.30,1.30,51.97,827.00,829.00,976.49,67.00
2024-05-02 14:55:18.000,4.39,1.16,1.30,48.97,741.00,829.00,976.49,88.00
2024-05-02 15:10:16.000,4.38,1.99,1.29,57.96,1266.00,820.00,974.32,12.00
2024-05-02 15:25:15.000,4.31,1.61,1.24,68.19,1004.00,773.00,959.19,16.00
2024-05-02 15:40:16.000,4.35,1.78,1.27,70.29,1121.00,801.00,967.84,13.00
2024-05-02 15:55:16.000,4.33,1.66,1.26,55.75,1038.00,790.00,963.51,21.00
2024-05-02 16:10:15.000,4.39,1.65,1.31,37.96,1052.00,833.00,976.49,34.00
2024-05-02 16:25:15.000,4.35,1.80,1.28,66.58,1131.00,805.00,967.84,15.00
2024-05-02 16:40:16.000,4.33,1.75,1.27,55.95,1096.00,792.00,963.51,16.00
2024-05-02 16:55:16.000,4.37,1.88,1.30,59.58,1189.00,820.00,972.16,6.00
2024-05-02 17:10:15.000,4.32,1.71,1.26,58.46,1066.00,786.00,961.35,16.00
2024-05-02 17:25:17.000,4.31,14.79,1.26,36.59,9195.00,781.00,959.19,51.00
2024-05-02 17:40:16.000,4.34,0.00,1.28,31.99,0.00,803.00,965.67,58.00
2024-05-02 17:55:14.000,4.30,1.05,1.25,47.76,653.00,775.00,957.02,108.00
2024-05-02 18:10:22.000,4.31,1.20,1.26,54.69,749.00,783.00,959.19,109.00
2024-05-02 18:25:16.000,4.30,1.39,1.25,59.79,861.00,775.00,957.02,107.00
2024-05-02 18:40:16.000,4.32,1.40,1.27,60.59,876.00,790.00,961.35,107.00
2024-05-02 18:55:14.000,4.31,1.39,1.26,60.69,867.00,783.00,959.19,107.00
2024-05-02 19:10:14.000,4.30,1.25,1.25,61.59,773.00,777.00,957.02,108.00
2024-05-02 19:25:19.000,4.32,1.34,1.27,57.69,837.00,790.00,961.35,107.00
2024-05-02 19:40:16.000,4.31,1.39,1.26,60.69,863.00,783.00,959.19,107.00
2024-05-02 19:55:16.000,4.30,1.28,1.25,57.69,793.00,775.00,957.02,107.00
2024-05-02 20:10:15.000,4.29,1.29,1.24,56.78,797.00,769.00,954.86,107.00
2024-05-02 20:25:19.000,4.28,1.18,1.24,59.59,726.00,763.00,952.70,108.00
2024-05-02 20:40:16.000,4.30,1.22,1.25,57.79,755.00,777.00,957.02,108.00
2024-05-02 20:55:20.000,4.28,1.20,1.24,61.59,742.00,763.00,952.70,108.00
2024-05-02 21:10:19.000,4.28,1.22,1.24,61.59,750.00,763.00,952.70,108.00
2024-05-02 21:25:15.000,4.28,1.21,1.24,60.69,748.00,763.00,952.70,108.00
2024-05-02 21:40:16.000,4.30,1.18,1.25,58.79,730.00,777.00,957.02,108.00
2024-05-02 21:55:19.000,4.30,1.24,1.25,58.69,771.00,775.00,957.02,107.00
2024-05-02 22:10:19.000,4.29,1.30,1.24,59.69,805.00,769.00,954.86,107.00

(96 rows affected)
